Regional Weather Roundup
Issued by NWS Lake Charles, LA

Home | Current Version | Previous Version | Text Only | Print | Product List | Glossary On
Versions: 1 2 3 4 5 6 7 8 9 10 11 12 13 14 15 16 17 18 19 20 21 22 23 24 25 26 27 28
000
ASUS44 KLCH 240810
RWRLCH
REGIONAL WEATHER ROUNDUP
NATIONAL WEATHER SERVICE LAKE CHARLES LA
200 AM CST FRI FEB 24 2017

Note: "fair" indicates few or no clouds below 12,000 feet with no
significant weather and/or obstructions to visibility.


ACROSS SOUTHEAST TEXAS

CITY           SKY/WX    TMP DP  RH WIND       PRES   REMARKS
BEAUMONT       CLOUDY    65  62  90 S10       29.69F
BEAUMONT CITY  CLOUDY    66  64  93 S10G20    29.70S
ORANGE         CLOUDY    65  64  96 S7        29.72F
JASPER         CLOUDY    65  63  93 S9G17     29.71F
$$

ACROSS CENTRAL LOUISIANA

CITY           SKY/WX    TMP DP  RH WIND       PRES   REMARKS
LEESVILLE      CLOUDY    63  61  94 S16G24    29.70F
FULLERTON      CLOUDY    64  61  90 VRB6      29.69S
ALEXANDRIA INT PTCLDY    62  60  93 S10       29.70F
ESLER FIELD    CLOUDY    63  61  93 S10G20    29.72F
DERIDDER       CLOUDY    64  63  95 S13       29.73F
OAKDALE        CLOUDY    64  62  93 SE3       29.73F
OPELOUSAS      CLOUDY    63  61  93 MISG      29.75F
$$

ACROSS SOUTHWEST AND SOUTH CENTRAL LOUISIANA

CITY           SKY/WX    TMP DP  RH WIND       PRES   REMARKS
SULPHUR        SUNNY     65  64  94 S10       29.72F
LAKE CHARLES   CLEAR     64  62  93 S9        29.71F
CHENNAULT INT  CLEAR     61  61  99 SE8       29.72F
CAMERON PHI      N/A    N/A N/A N/A MISG        N/A
DEQUINCY       CLOUDY    63  62  96 SE6       29.71F
JENNINGS       CLOUDY    64  62  91 S7        29.74S
LAFAYETTE      CLEAR     64  62  93 CALM      29.75S
NEW IBERIA     FOG       59  57  93 S3        29.76S VSB 3/4
ABBEVILLE      FAIR      63  63 100 S6        29.75F
PATTERSON      CLEAR     62  61  96 SE5       29.77F
SALT POINT       N/A     64  62  93 S6        29.75F
$$

SELECTED SITES ACROSS THE REGION

CITY           SKY/WX    TMP DP  RH WIND       PRES   REMARKS
HOUSTON BUSH   MOCLDY    66  63  90 S10       29.67R
HOUSTON HOBBY  MOCLDY    67  65  93 S13G18    29.67S
GALVESTON        N/A     68  66  93 S17       29.69R
COLLEGE STAT   MOCLDY    64  62  93 S12       29.64S
CONROE         CLOUDY    63  62  97 S8        29.67S
HUNTSVILLE     MOCLDY    63  60  90 S10       29.64S
LUFKIN         PTCLDY    58  58 100 S6        29.65S
SHREVEPORT     CLEAR     61  59  93 S12       29.63S
MONROE         CLEAR     61  56  83 S8        29.71S
NATCHEZ MS     CLEAR     59  52  77 S9        29.74F
BATON ROUGE    CLEAR     62  60  93 S5        29.77S
N.O. INTL ARPT MOCLDY    65  63  93 S6        29.78S
SLIDELL        MOCLDY    64  63  96 SE5       29.78F
$$

MARINE REPORTS

STATION/POSITION TIME  SKY/WX   TEMP    WIND        PRES    VSBY
                                AIR SEA DIR/SP/G
                 (UTC)          (F)     (DEG/KT/KT) (MB)    (MI)
BUOY 30 S HIGH I 0750            67 65  160/ 17/ 21 1004.6F
WVE H/P(F/S)=  4/ 5

SEA RIM ST PARK  0700            66     170/ 12/ 16 1006.4F
PORT ARTHUR      0748               66  170/  7/ 10 1006.0F
SABINE PASS N    0748            66 69  170/ 11/ 15 1007.1F
TEXAS POINT      NOT AVBL
CALCASIEU PASS   0748            67 67  180/ 17/ 20   N/A
LK CHARLES BEACH 0748            63 69              1006.7F
MARSH ISLAND     0700            71                   N/A
FRESH WATER LOCK 0748            67 68  150/ 10/ 14 1007.8F
AMERADA PASS     0748            65 57  140/  5/  9 1007.7F
$$




USA.gov is the U.S. government's official web portal to all federal, state and local government web resources and services.